User: anonymous   Login
Location: Columbia
(38.9520°N, 92.3340°W)
Time: 11:00:52
(UTC-05:00)
Language:

Cosmos 1633 - Orbit

View from above orbital plane
View from above orbital plane
View from above satellite
View from above satellite

Ground track
Ground track

The orbit data is extracted from the following two-line orbital elements,

1 15592U 85020A   16243.54889767  .00001992  00000-0  72970-4 0  9997
2 15592  82.5360 250.2610 0015741 121.0944 239.1842 15.27282111719919
Epoch (UTC): 30 August 2016 13:10:24
Eccentricity: 0.0015741
inclination: 82.5360°
perigee height: 473 km
apogee height: 495 km
right ascension of ascending node: 250.2610°
argument of perigee: 121.0944°
revolutions per day: 15.27282111
mean anomaly at epoch: 239.1842°
orbit number at epoch: 71991

The dashed part of the orbit path shows where the satellite is in the earth's shadow,  

DLR